N5CSU Weather Reports


Display with metric or nautical units.
time (UTC)temp
F
wind
direction
speed
MPH
gust
MPH
rain 1hr
in
rain 24hr
in
rain mn
in
humidity
%
barometer
mb
20260507202035 71 197 0.0 0.0 0.00 0.00 0.00 58 1016.6
20260507201531 71 197 0.0 0.0 0.00 0.00 0.00 58 1016.7
20260507201027 71 190 0.0 0.0 0.00 0.00 0.00 59 1016.8
20260507200523 71 185 0.0 0.0 0.00 0.00 0.00 56 1016.8
20260507200019 71 194 0.0 0.0 0.00 0.00 0.00 55 1016.8
20260507195516 71 210 0.0 0.0 0.00 0.00 0.00 57 1016.7
20260507195014 71 180 0.0 0.0 0.00 0.00 0.00 59 1016.9
20260507194510 71 188 0.0 0.0 0.00 0.00 0.00 58 1016.8
20260507194006 71 189 0.0 1.0 0.00 0.00 0.00 57 1016.9
20260507193503 72 184 0.0 0.0 0.00 0.00 0.00 56 1017.1
20260507193000 72 192 0.0 0.0 0.00 0.00 0.00 56 1017.1
20260507192456 71 191 0.0 0.0 0.00 0.00 0.00 55 1017.4
20260507191953 72 178 0.0 1.0 0.00 0.00 0.00 56 1017.4
20260507191449 71 177 0.0 0.0 0.00 0.00 0.00 55 1017.5
20260507190946 71 178 0.0 0.0 0.00 0.00 0.00 55 1017.4
20260507190444 71 293 0.0 0.0 0.00 0.00 0.00 58 1017.4
20260507185943 71 182 0.0 0.0 0.00 0.00 0.00 56 1017.4
20260507185439 71 178 1.0 1.0 0.00 0.00 0.00 55 1017.6
20260507184936 71 161 0.0 0.0 0.00 0.00 0.00 53 1017.5
20260507184434 71 194 0.0 0.0 0.00 0.00 0.00 54 1017.6
20260507183931 71 168 0.0 0.0 0.00 0.00 0.00 56 1017.3
20260507183428 71 175 1.0 1.0 0.00 0.00 0.00 54 1017.5
20260507182925 70 193 0.0 1.0 0.00 0.00 0.00 55 1017.5
20260507182421 70 204 0.0 0.0 0.00 0.00 0.00 55 1017.7
20260507181918 70 172 2.0 2.0 0.00 0.00 0.00 56 1017.8
20260507181414 70 204 0.0 0.0 0.00 0.00 0.00 57 1017.7
20260507180910 70 194 0.0 0.0 0.00 0.00 0.00 55 1017.7
20260507180407 69 189 0.0 0.0 0.00 0.00 0.00 58 1018.0
20260507175903 69 79 1.0 1.0 0.00 0.00 0.00 52 1018.3
20260507175400 69 201 0.0 0.0 0.00 0.00 0.00 56 1018.1
20260507174858 69 176 0.0 0.0 0.00 0.00 0.00 58 1018.2
20260507174355 68 189 0.0 0.0 0.00 0.00 0.00 62 1018.3
20260507173852 68 205 0.0 0.0 0.00 0.00 0.00 59 1018.5
20260507173349 68 190 0.0 0.0 0.00 0.00 0.00 58 1018.5
20260507172846 68 191 0.0 0.0 0.00 0.00 0.00 59 1018.5
20260507172342 68 192 0.0 0.0 0.00 0.00 0.00 59 1018.8
20260507171838 68 182 0.0 0.0 0.00 0.00 0.00 62 1018.8
20260507171335 68 190 0.0 0.0 0.00 0.00 0.00 61 1019.0
20260507170832 68 189 0.0 0.0 0.00 0.00 0.00 58 1019.3
20260507170329 67 203 0.0 1.0 0.00 0.00 0.00 62 1019.2
20260507165825 67 181 0.0 0.0 0.00 0.00 0.00 60 1019.5
20260507165320 67 174 1.0 1.0 0.00 0.00 0.00 61 1019.5
20260507164817 67 190 0.0 1.0 0.00 0.00 0.00 62 1019.8
20260507164314 67 190 0.0 0.0 0.00 0.00 0.00 62 1019.8
20260507163811 66 357 0.0 1.0 0.00 0.00 0.00 60 1019.6
20260507163309 66 192 0.0 0.0 0.00 0.00 0.00 64 1019.5
20260507162805 66 185 0.0 0.0 0.00 0.00 0.00 67 1019.8
20260507162300 66 206 0.0 0.0 0.00 0.00 0.00 64 1019.9
20260507161758 66 205 0.0 0.0 0.00 0.00 0.00 65 1019.9
20260507161255 66 180 0.0 0.0 0.00 0.00 0.00 65 1019.8
20260507160750 65 186 1.0 2.0 0.00 0.00 0.00 65 1019.6
20260507160247 66 181 0.0 1.0 0.00 0.00 0.00 65 1019.6
20260507155743 65 185 0.0 0.0 0.00 0.00 0.00 66 1019.9
20260507155238 65 199 0.0 0.0 0.00 0.00 0.00 66 1019.8
20260507154736 65 180 0.0 0.0 0.00 0.00 0.00 66 1019.8
20260507154233 65 176 0.0 0.0 0.00 0.00 0.00 68 1019.9
20260507153730 65 183 0.0 0.0 0.00 0.00 0.00 68 1019.9
20260507153226 64 198 0.0 0.0 0.00 0.00 0.00 69 1020.0
20260507152722 64 166 0.0 0.0 0.00 0.00 0.00 68 1020.1
20260507152219 64 192 0.0 0.0 0.00 0.00 0.00 69 1020.1
20260507151715 64 192 0.0 0.0 0.00 0.00 0.00 70 1020.0
20260507151212 64 53 1.0 2.0 0.00 0.00 0.00 68 1020.2
20260507150708 64 174 0.0 0.0 0.00 0.00 0.00 72 1020.2
20260507150206 63 174 0.0 0.0 0.00 0.00 0.00 71 1020.2
20260507145701 63 169 0.0 0.0 0.00 0.00 0.00 71 1020.4
20260507145158 62 183 0.0 0.0 0.00 0.00 0.00 73 1020.3
20260507144654 62 169 0.0 0.0 0.00 0.00 0.00 72 1020.4
20260507144153 62 160 0.0 0.0 0.00 0.00 0.00 74 1020.3
20260507143650 62 195 0.0 0.0 0.00 0.00 0.00 77 1020.2
20260507143147 61 177 0.0 0.0 0.00 0.00 0.00 77 1020.3
20260507142642 61 188 0.0 0.0 0.00 0.00 0.00 77 1020.2
20260507142139 61 147 0.0 0.0 0.00 0.00 0.00 77 1020.5
20260507141636 60 198 0.0 0.0 0.00 0.00 0.00 79 1020.5
20260507141133 60 175 0.0 0.0 0.00 0.00 0.00 79 1020.4
20260507140629 59 183 0.0 0.0 0.00 0.00 0.00 81 1020.6
20260507140127 59 181 0.0 0.0 0.00 0.00 0.00 81 1020.6
20260507135623 59 177 0.0 0.0 0.00 0.00 0.00 80 1020.7
20260507135121 59 177 0.0 0.0 0.00 0.00 0.00 81 1020.7
20260507134617 58 163 0.0 0.0 0.00 0.00 0.00 81 1020.9
20260507134113 58 172 0.0 0.0 0.00 0.00 0.00 85 1020.9
20260507133609 57 168 0.0 0.0 0.00 0.00 0.00 87 1021.0
20260507133107 57 184 0.0 0.0 0.00 0.00 0.00 88 1020.9
20260507132603 56 185 0.0 0.0 0.00 0.00 0.00 90 1020.9
20260507132100 56 180 0.0 0.0 0.00 0.00 0.00 94 1020.9
20260507131557 56 182 0.0 0.0 0.00 0.00 0.00 95 1020.7
20260507131055 56 182 0.0 0.0 0.00 0.00 0.00 95 1020.7
20260507130551 55 181 0.0 0.0 0.00 0.00 0.00 95 1020.8
20260507130049 55 181 0.0 0.0 0.00 0.00 0.00 95 1020.9
20260507125548 55 181 0.0 0.0 0.00 0.00 0.00 95 1020.9
20260507125045 54 181 0.0 0.0 0.00 0.00 0.00 95 1020.9
20260507124541 54 181 0.0 0.0 0.00 0.00 0.00 95 1020.7
20260507124039 53 182 0.0 0.0 0.00 0.00 0.00 95 1020.7
20260507123537 53 182 0.0 0.0 0.00 0.00 0.00 95 1020.3
20260507123033 53 182 0.0 0.0 0.00 0.00 0.00 95 1020.5
20260507122528 52 182 0.0 0.0 0.00 0.00 0.00 95 1020.6
20260507122025 52 182 0.0 0.0 0.00 0.00 0.00 95 1020.6
20260507121520 52 182 0.0 0.0 0.00 0.00 0.00 95 1020.5
20260507121016 52 182 0.0 0.0 0.00 0.00 0.00 95 1020.6
20260507120513 52 182 0.0 0.0 0.00 0.00 0.00 95 1020.6
20260507120010 52 182 0.0 0.0 0.00 0.00 0.00 95 1020.5
20260507115506 52 184 0.0 0.0 0.00 0.00 0.00 95 1020.2
20260507115002 52 184 0.0 0.0 0.00 0.00 0.00 94 1020.3
20260507114458 52 184 0.0 0.0 0.00 0.00 0.00 94 1020.4
20260507113955 52 184 0.0 0.0 0.00 0.00 0.00 94 1020.2
20260507113452 52 184 0.0 0.0 0.00 0.00 0.00 94 1020.2
20260507112949 52 184 0.0 0.0 0.00 0.00 0.00 94 1019.9
20260507112447 52 184 0.0 0.0 0.00 0.00 0.00 94 1020.0
20260507111944 52 184 0.0 0.0 0.00 0.00 0.00 94 1020.0
20260507111441 52 184 0.0 0.0 0.00 0.00 0.00 94 1019.9
20260507110937 52 184 0.0 0.0 0.00 0.00 0.00 94 1020.0
20260507110433 52 184 0.0 0.0 0.00 0.00 0.00 94 1019.8
20260507105930 52 184 0.0 0.0 0.00 0.00 0.00 94 1019.8
20260507105427 52 184 0.0 0.0 0.00 0.00 0.00 94 1019.8
20260507104923 52 184 0.0 0.0 0.00 0.00 0.00 94 1019.3
20260507104421 52 184 0.0 0.0 0.00 0.00 0.00 94 1019.1
20260507103916 52 184 0.0 0.0 0.00 0.00 0.00 93 1019.0
20260507103413 52 184 0.0 0.0 0.00 0.00 0.00 93 1019.0
20260507102909 52 184 0.0 0.0 0.00 0.00 0.00 93 1019.0
20260507102406 52 184 0.0 0.0 0.00 0.00 0.00 93 1018.8
20260507101903 52 184 0.0 0.0 0.00 0.00 0.00 93 1018.8
20260507101403 52 184 0.0 0.0 0.00 0.00 0.00 92 1018.5
20260507100900 52 184 0.0 0.0 0.00 0.00 0.00 92 1018.5
20260507100357 52 184 0.0 0.0 0.00 0.00 0.00 92 1018.5
20260507095856 53 184 0.0 0.0 0.00 0.00 0.00 92 1018.4
20260507095352 53 184 0.0 0.0 0.00 0.00 0.00 92 1018.5
20260507094849 53 184 0.0 0.0 0.00 0.00 0.00 91 1018.4
20260507094345 53 184 0.0 0.0 0.00 0.00 0.00 91 1018.4
20260507093843 53 184 0.0 0.0 0.00 0.00 0.00 91 1018.3
20260507093341 53 184 0.0 0.0 0.00 0.00 0.00 90 1018.2
20260507092839 53 184 0.0 0.0 0.00 0.00 0.00 90 1018.4
20260507092335 54 183 0.0 0.0 0.00 0.00 0.00 90 1018.2
20260507091831 54 183 0.0 0.0 0.00 0.00 0.00 90 1018.3
20260507091328 54 182 0.0 0.0 0.00 0.00 0.00 90 1018.0
20260507090823 54 182 0.0 0.0 0.00 0.00 0.00 90 1018.3
20260507090320 54 182 0.0 0.0 0.00 0.00 0.00 90 1018.0
20260507085817 54 182 0.0 0.0 0.00 0.00 0.00 90 1018.0
20260507085314 55 182 0.0 0.0 0.00 0.00 0.00 89 1018.1
20260507084811 55 182 0.0 0.0 0.00 0.00 0.00 89 1018.3
20260507084307 55 180 0.0 0.0 0.00 0.00 0.00 89 1018.1
20260507083805 55 180 0.0 0.0 0.00 0.00 0.00 89 1018.2
20260507083301 55 179 0.0 0.0 0.00 0.00 0.00 89 1018.0
20260507082757 55 181 0.0 0.0 0.00 0.00 0.00 89 1018.2
20260507082253 55 180 0.0 0.0 0.00 0.00 0.00 89 1018.1
20260507081750 55 180 0.0 0.0 0.00 0.00 0.00 89 1018.2
20260507081246 55 184 0.0 0.0 0.00 0.00 0.00 88 1018.0
20260507080743 56 184 0.0 0.0 0.00 0.00 0.00 88 1017.9
20260507080239 56 184 0.0 0.0 0.00 0.00 0.00 88 1017.9
20260507075735 56 175 0.0 0.0 0.00 0.00 0.00 87 1017.9
20260507075231 56 183 0.0 0.0 0.00 0.00 0.00 87 1017.7
20260507074727 56 178 0.0 0.0 0.00 0.00 0.00 87 1017.7
20260507074226 56 179 0.0 0.0 0.00 0.00 0.00 87 1017.4
20260507073722 56 182 0.0 0.0 0.00 0.00 0.00 87 1017.4
20260507073219 56 183 0.0 0.0 0.00 0.00 0.00 87 1017.2
20260507072717 56 180 0.0 0.0 0.00 0.00 0.00 87 1017.3
20260507072214 56 187 0.0 0.0 0.00 0.00 0.00 87 1017.2
20260507071711 56 194 0.0 0.0 0.00 0.00 0.00 87 1017.5
20260507071208 56 175 0.0 0.0 0.00 0.00 0.00 87 1017.5
20260507070705 56 174 0.0 0.0 0.00 0.00 0.00 87 1017.5
20260507070201 56 172 0.0 0.0 0.00 0.00 0.00 86 1017.5
20260507065657 56 176 0.0 0.0 0.00 0.00 0.00 86 1017.4
20260507065155 56 174 0.0 0.0 0.00 0.00 0.00 86 1017.6
20260507064652 56 182 0.0 0.0 0.00 0.00 0.00 85 1017.7
20260507064150 57 181 0.0 0.0 0.00 0.00 0.00 85 1017.5
20260507063648 57 183 0.0 0.0 0.00 0.00 0.00 84 1017.6
20260507063145 57 171 0.0 0.0 0.00 0.00 0.00 83 1017.5
20260507062641 57 160 0.0 0.0 0.00 0.00 0.00 83 1017.4
20260507062139 57 172 0.0 0.0 0.00 0.00 0.00 82 1017.6
20260507061637 57 170 0.0 0.0 0.00 0.00 0.00 82 1017.2
20260507061134 58 189 0.0 0.0 0.00 0.00 0.00 82 1017.4
20260507060632 58 176 0.0 0.0 0.00 0.00 0.00 81 1017.4
20260507060128 58 171 0.0 0.0 0.00 0.00 0.00 82 1017.4
20260507055624 58 173 0.0 0.0 0.00 0.00 0.00 81 1017.2
20260507055120 58 183 0.0 0.0 0.00 0.00 0.00 81 1017.4
20260507054616 58 151 0.0 0.0 0.00 0.00 0.00 81 1017.4
20260507054113 58 40 0.0 1.0 0.00 0.00 0.00 81 1017.4
20260507053611 59 156 1.0 1.0 0.00 0.00 0.00 81 1017.2
20260507053110 59 172 1.0 1.0 0.00 0.00 0.00 82 1017.3
20260507052607 59 158 0.0 0.0 0.00 0.00 0.00 82 1017.2
20260507052103 59 193 0.0 0.0 0.00 0.00 0.00 82 1017.4
20260507051601 59 162 0.0 0.0 0.00 0.00 0.00 81 1017.4
20260507051058 59 197 1.0 1.0 0.00 0.00 0.00 81 1017.4
20260507050554 59 168 0.0 0.0 0.00 0.00 0.00 82 1017.4
20260507050051 59 169 1.0 1.0 0.00 0.00 0.00 82 1017.4
20260507045548 59 188 0.0 0.0 0.00 0.00 0.00 81 1017.4
20260507045045 59 197 0.0 0.0 0.00 0.00 0.00 80 1017.7
20260507044541 59 177 0.0 0.0 0.00 0.00 0.00 80 1017.6
20260507044039 59 162 0.0 0.0 0.00 0.00 0.00 79 1017.6
20260507043534 60 131 0.0 1.0 0.00 0.00 0.00 80 1017.6
20260507043032 60 186 1.0 1.0 0.00 0.00 0.00 79 1017.6
20260507042527 60 19 0.0 2.0 0.00 0.00 0.00 79 1017.7
20260507042023 60 47 2.0 3.0 0.00 0.00 0.00 78 1018.0
20260507041521 60 192 0.0 0.0 0.00 0.00 0.00 78 1017.8
20260507041017 60 181 0.0 0.0 0.00 0.00 0.00 79 1017.8
20260507040514 60 183 0.0 0.0 0.00 0.00 0.00 80 1018.0
20260507040009 60 196 0.0 0.0 0.00 0.00 0.00 79 1017.8
20260507035506 60 188 0.0 0.0 0.00 0.00 0.00 80 1017.8
20260507035002 60 182 0.0 0.0 0.00 0.00 0.00 80 1017.7
20260507034459 60 192 0.0 0.0 0.00 0.00 0.00 80 1017.9
20260507033957 60 177 0.0 0.0 0.00 0.00 0.00 80 1017.9
20260507033456 60 193 0.0 0.0 0.00 0.00 0.00 80 1017.9
20260507032952 60 199 0.0 0.0 0.00 0.00 0.00 79 1017.9
20260507032449 60 196 0.0 0.0 0.00 0.00 0.00 79 1017.6
20260507031945 60 202 0.0 0.0 0.00 0.00 0.00 79 1017.6
20260507031441 60 199 0.0 1.0 0.00 0.00 0.00 80 1017.4
20260507030938 60 224 1.0 1.0 0.00 0.00 0.00 81 1017.5
20260507030436 60 184 0.0 0.0 0.00 0.00 0.00 81 1017.3
20260507025933 60 187 0.0 0.0 0.00 0.00 0.00 81 1017.3
20260507025430 60 187 0.0 0.0 0.00 0.00 0.00 81 1017.1
20260507024928 60 204 0.0 1.0 0.00 0.00 0.00 81 1017.0
20260507024425 60 187 0.0 0.0 0.00 0.00 0.00 80 1017.1
20260507023920 60 195 0.0 0.0 0.00 0.00 0.00 81 1016.9
20260507023418 60 178 0.0 0.0 0.00 0.00 0.00 81 1016.8
20260507022915 60 178 0.0 0.0 0.00 0.00 0.00 81 1016.7
20260507022412 60 186 0.0 0.0 0.00 0.00 0.00 82 1016.8
20260507021907 60 161 0.0 0.0 0.00 0.00 0.00 82 1016.8
20260507021404 60 184 0.0 0.0 0.00 0.00 0.00 82 1016.6
20260507020901 60 125 0.0 0.0 0.00 0.00 0.00 83 1016.5
20260507020357 60 190 0.0 0.0 0.00 0.00 0.00 83 1016.3
20260507015854 60 176 0.0 0.0 0.00 0.00 0.00 84 1016.0
20260507015352 60 173 0.0 0.0 0.00 0.00 0.00 84 1016.1
20260507014849 60 170 0.0 0.0 0.00 0.00 0.00 84 1016.0
20260507014345 60 183 0.0 0.0 0.00 0.00 0.00 84 1015.6
20260507013842 60 171 0.0 0.0 0.00 0.00 0.00 84 1015.5
20260507013339 60 168 0.0 0.0 0.00 0.00 0.00 84 1015.6
20260507012836 60 159 0.0 0.0 0.00 0.00 0.00 84 1015.4
20260507012332 60 191 0.0 0.0 0.00 0.00 0.00 84 1015.4
20260507011829 60 188 0.0 0.0 0.00 0.00 0.00 84 1015.3
20260507011326 60 193 0.0 0.0 0.00 0.00 0.00 84 1015.2
20260507010825 60 185 0.0 0.0 0.00 0.00 0.00 84 1015.3
20260507010321 60 140 0.0 1.0 0.00 0.00 0.00 84 1015.1
20260507005820 60 192 0.0 0.0 0.00 0.00 0.00 84 1014.9
20260507005316 60 174 0.0 0.0 0.00 0.00 0.00 84 1015.1
20260507004812 60 102 0.0 1.0 0.00 0.00 0.00 84 1015.0
20260507004310 60 164 0.0 0.0 0.00 0.00 0.00 84 1014.9
20260507003807 60 33 0.0 0.0 0.00 0.00 0.00 83 1014.9
20260507003301 60 33 0.0 0.0 0.00 0.00 0.00 83 1014.9
20260507002758 60 175 0.0 0.0 0.00 0.00 0.00 83 1015.0
20260507002253 60 185 0.0 0.0 0.00 0.00 0.00 83 1014.8
20260507001751 60 149 0.0 0.0 0.00 0.00 0.00 83 1014.7
20260507001249 60 163 0.0 0.0 0.00 0.00 0.00 82 1014.8
20260507000745 60 156 0.0 0.0 0.00 0.00 0.00 82 1014.6
20260507000241 60 199 0.0 0.0 0.00 0.00 0.00 82 1014.6
20260506235738 60 8 0.0 0.0 0.00 0.00 0.00 81 1014.6
20260506235232 61 8 0.0 0.0 0.00 0.00 0.00 81 1014.3
20260506234729 61 151 0.0 1.0 0.00 0.00 0.00 81 1014.4
20260506234227 61 61 0.0 1.0 0.00 0.00 0.00 81 1014.5
20260506233719 61 115 0.0 0.0 0.00 0.00 0.00 80 1014.5
20260506233215 61 172 0.0 1.0 0.00 0.00 0.00 81 1014.4
20260506232711 61 173 0.0 0.0 0.00 0.00 0.00 81 1014.4
20260506232206 61 167 0.0 0.0 0.00 0.00 0.00 80 1014.5
20260506231703 61 168 0.0 0.0 0.00 0.00 0.00 80 1014.1
20260506231202 61 173 0.0 0.0 0.00 0.00 0.00 79 1014.1
20260506230658 61 195 0.0 0.0 0.00 0.00 0.00 80 1014.3
20260506230155 61 187 0.0 0.0 0.00 0.00 0.00 80 1014.1
20260506225651 61 195 0.0 0.0 0.00 0.00 0.00 80 1014.0
20260506225149 61 173 0.0 0.0 0.00 0.00 0.00 80 1014.0
20260506224645 61 186 0.0 0.0 0.00 0.00 0.00 80 1014.1
20260506224142 62 147 0.0 0.0 0.00 0.00 0.00 80 1013.9
20260506223638 61 174 0.0 0.0 0.00 0.00 0.00 80 1013.9
20260506223134 61 174 0.0 0.0 0.00 0.00 0.00 79 1014.0
20260506222631 61 167 0.0 0.0 0.00 0.00 0.00 80 1013.9
20260506222127 61 179 0.0 0.0 0.00 0.00 0.00 81 1014.0
20260506221625 61 195 0.0 0.0 0.00 0.00 0.00 81 1013.9
20260506221123 61 201 0.0 0.0 0.00 0.00 0.00 81 1014.0
20260506220619 61 183 0.0 0.0 0.00 0.00 0.00 80 1013.7
20260506220114 61 170 0.0 0.0 0.00 0.00 0.00 80 1013.5
20260506215612 61 185 0.0 0.0 0.00 0.00 0.00 81 1013.6
20260506215107 61 188 0.0 0.0 0.00 0.00 0.00 81 1013.2
20260506214604 61 180 0.0 0.0 0.00 0.00 0.00 81 1013.5
20260506214101 61 179 0.0 0.0 0.00 0.00 0.00 81 1013.6
20260506213559 61 185 0.0 0.0 0.00 0.00 0.00 80 1013.6
20260506213051 61 175 0.0 0.0 0.00 0.00 0.00 80 1013.8
20260506212548 61 165 0.0 0.0 0.00 0.00 0.00 79 1013.7
20260506212043 61 171 0.0 0.0 0.00 0.00 0.00 80 1013.6
20260506211539 61 192 0.0 0.0 0.00 0.00 0.00 80 1013.7
20260506211036 61 192 0.0 0.0 0.00 0.00 0.00 80 1013.9
20260506210533 61 179 0.0 0.0 0.00 0.00 0.00 79 1013.7
20260506210030 61 176 0.0 0.0 0.00 0.00 0.00 80 1013.9
20260506205526 61 175 0.0 0.0 0.00 0.00 0.00 79 1013.8
20260506205021 61 176 0.0 0.0 0.00 0.00 0.00 81 1013.9
20260506204520 61 178 0.0 0.0 0.00 0.00 0.00 80 1014.3
20260506204016 61 192 0.0 0.0 0.00 0.00 0.00 80 1014.3
20260506203515 61 172 0.0 0.0 0.00 0.00 0.00 79 1014.2
20260506203010 61 182 0.0 0.0 0.00 0.00 0.00 80 1014.2
20260506202508 61 181 0.0 0.0 0.00 0.00 0.00 78 1014.1